SAUDISAT 3

Last updated on Mon Sep 21 2026 00:03:39 GMT+0000 (Coordinated Universal Time)

1 31118U 07012B 26263.39207899 .00000160 00000+0 34103-4 0 9991 2 31118 98.1554 213.8981 0013325 286.6405 73.3338 14.71472701 41742
UTC large
Height (km)
Speed (km/s)
/
Latitude / Longitude
Inclination (degrees)
Orbital Period (minutes)
Azimuth
Elevation
Range (km)
Doppler Factor

Next 0 passes for location: London (51.5072 / 0.1276)

No passes found over London.
SAUDISAT 3